When you browse on this site, cookies collect data to enhance your experience and personalize the content and advertising you see.
Visit our Privacy Policy to learn more. By continuing to use the site, you agree to this use of cookies and data.
  • In Sweden
  • List of Countries
  • For 7 days
  • Water Temperature
  • Satellite Maps
  • Weather Map
  • Weather Widgets
  • user-avatar
    Login

    Hourly Weather Bangkinang

    Today, 17 July, Wednesday

    Time Temperature Precipitation Wind Pressure Humidity
    00:00 +23°C° 2 mm 0 mps 754 mmHg 96%
    01:00 +23°C° 0 mm 0 mps 754 mmHg 96%
    02:00 +23°C° 0 mm 0 mps 753 mmHg 97%
    03:00 +23°C° 0 mm 0 mps 753 mmHg 97%
    04:00 +23°C° 0 mm 0 mps 752 mmHg 97%
    05:00 +23°C° 0 mm 0 mps 753 mmHg 97%
    06:00 +23°C° 0 mm 0 mps 753 mmHg 97%
    07:00 +24°C° 0 mm 0 mps 753 mmHg 97%
    08:00 +27°C° 0 mm 1 mps 753 mmHg 89%
    09:00 +29°C° 0 mm 1 mps 753 mmHg 81%
    10:00 +30°C° 0 mm 2 mps 753 mmHg 73%
    11:00 +32°C° 0 mm 2 mps 753 mmHg 68%
    12:00 +34°C° 0 mm 2 mps 752 mmHg 62%
    13:00 +35°C° 0 mm 2 mps 752 mmHg 56%
    14:00 +34°C° 0 mm 1 mps 751 mmHg 56%
    15:00 +34°C° 0 mm 1 mps 750 mmHg 56%
    16:00 +34°C° 0 mm 1 mps 750 mmHg 56%
    17:00 +32°C° 0.4 mm 1 mps 750 mmHg 66%
    18:00 +30°C° 0.4 mm 1 mps 750 mmHg 75%
    19:00 +28°C° 0.4 mm 1 mps 751 mmHg 85%
    20:00 +28°C° 2.5 mm 1 mps 751 mmHg 88%
    21:00 +27°C° 2.5 mm 1 mps 752 mmHg 91%
    22:00 +24°C° 2.5 mm 0 mps 753 mmHg 95%
    23:00 +26°C° 1.9 mm 1 mps 753 mmHg 96%

    Tomorrow, 18 July, Thursday

    Time Temperature Precipitation Wind Pressure Humidity
    00:00 +26°C° 1.9 mm 1 mps 753 mmHg 96%
    01:00 +26°C° 1.9 mm 1 mps 752 mmHg 97%
    02:00 +25°C° 0.1 mm 1 mps 752 mmHg 97%
    03:00 +25°C° 0.1 mm 1 mps 752 mmHg 97%
    04:00 +25°C° 0.1 mm 1 mps 752 mmHg 98%
    05:00 +25°C° 0 mm 1 mps 752 mmHg 97%
    06:00 +25°C° 0 mm 1 mps 752 mmHg 97%
    07:00 +25°C° 0 mm 1 mps 753 mmHg 97%
    08:00 +27°C° 0 mm 1 mps 753 mmHg 87%
    09:00 +28°C° 0 mm 2 mps 753 mmHg 78%
    10:00 +30°C° 0 mm 2 mps 753 mmHg 69%
    11:00 +31°C° 0 mm 2 mps 753 mmHg 64%
    12:00 +34°C° 0 mm 2 mps 752 mmHg 60%
    13:00 +35°C° 0 mm 2 mps 752 mmHg 55%
    14:00 +35°C° 0 mm 2 mps 751 mmHg 55%
    15:00 +34°C° 0 mm 1 mps 750 mmHg 55%
    16:00 +34°C° 0 mm 1 mps 749 mmHg 55%
    17:00 +32°C° 0.2 mm 1 mps 750 mmHg 64%
    18:00 +30°C° 0.2 mm 1 mps 750 mmHg 72%
    19:00 +27°C° 0.2 mm 0 mps 751 mmHg 80%
    20:00 +26°C° 0.2 mm 0 mps 751 mmHg 82%
    21:00 +25°C° 0.2 mm 0 mps 752 mmHg 84%
    22:00 +25°C° 0.2 mm 0 mps 753 mmHg 85%
    23:00 +27°C° 0 mm 1 mps 753 mmHg 86%

    Day after tomorrow, 19 July, Friday

    Time Temperature Precipitation Wind Pressure Humidity
    00:00 +26°C° 0 mm 1 mps 753 mmHg 86%
    01:00 +26°C° 0 mm 1 mps 753 mmHg 86%
    02:00 +26°C° 0 mm 1 mps 752 mmHg 87%
    03:00 +25°C° 0 mm 1 mps 752 mmHg 88%
    04:00 +25°C° 0 mm 1 mps 751 mmHg 89%
    05:00 +25°C° 0 mm 1 mps 752 mmHg 88%
    06:00 +25°C° 0 mm 1 mps 752 mmHg 88%
    07:00 +25°C° 0 mm 1 mps 753 mmHg 88%
    08:00 +27°C° 0 mm 1 mps 753 mmHg 81%
    09:00 +28°C° 0 mm 2 mps 753 mmHg 73%
    10:00 +30°C° 0 mm 2 mps 754 mmHg 66%
    11:00 +31°C° 0 mm 2 mps 753 mmHg 62%
    12:00 +32°C° 0 mm 2 mps 752 mmHg 59%
    13:00 +34°C° 0 mm 2 mps 752 mmHg 55%
    14:00 +34°C° 0 mm 2 mps 751 mmHg 55%
    15:00 +34°C° 0 mm 2 mps 750 mmHg 54%
    16:00 +35°C° 0 mm 2 mps 750 mmHg 54%
    17:00 +32°C° 0 mm 1 mps 750 mmHg 60%
    18:00 +30°C° 0 mm 1 mps 751 mmHg 65%
    19:00 +28°C° 0 mm 1 mps 751 mmHg 71%
    20:00 +28°C° 0 mm 1 mps 752 mmHg 72%
    21:00 +25°C° 0 mm 0 mps 752 mmHg 73%
    22:00 +24°C° 0 mm 0 mps 753 mmHg 74%
    23:00 +24°C° 0 mm 0 mps 753 mmHg 75%

    20 July, Saturday

    Time Temperature Precipitation Wind Pressure Humidity
    00:00 +24°C° 0 mm 0 mps 752 mmHg 77%
    01:00 +23°C° 0 mm 0 mps 752 mmHg 79%
    02:00 +23°C° 0 mm 0 mps 752 mmHg 80%
    03:00 +23°C° 0 mm 0 mps 752 mmHg 81%
    04:00 +22°C° 0 mm 0 mps 752 mmHg 83%
    05:00 +24°C° 0 mm 1 mps 752 mmHg 83%
    06:00 +24°C° 0 mm 1 mps 752 mmHg 84%
    07:00 +24°C° 0 mm 1 mps 753 mmHg 85%
    08:00 +26°C° 0 mm 1 mps 753 mmHg 79%
    09:00 +28°C° 0 mm 1 mps 753 mmHg 73%
    10:00 +30°C° 0 mm 2 mps 753 mmHg 68%
    11:00 +31°C° 0 mm 2 mps 753 mmHg 63%
    12:00 +34°C° 0 mm 2 mps 752 mmHg 58%
    13:00 +34°C° 0 mm 1 mps 751 mmHg 53%
    14:00 +34°C° 0 mm 1 mps 751 mmHg 55%
    15:00 +34°C° 0 mm 1 mps 750 mmHg 56%
    16:00 +34°C° 0 mm 1 mps 750 mmHg 57%
    17:00 +32°C° 0 mm 1 mps 750 mmHg 64%
    18:00 +28°C° 0 mm 0 mps 751 mmHg 71%
    19:00 +27°C° 0 mm 0 mps 751 mmHg 78%
    20:00 +26°C° 0 mm 0 mps 752 mmHg 80%
    21:00 +26°C° 0 mm 0 mps 752 mmHg 81%
    22:00 +25°C° 0 mm 0 mps 753 mmHg 82%
    23:00 +25°C° 0 mm 0 mps 753 mmHg 84%

    21 July, Sunday

    Time Temperature Precipitation Wind Pressure Humidity
    00:00 +24°C° 0 mm 0 mps 753 mmHg 86%
    01:00 +24°C° 0 mm 0 mps 752 mmHg 87%
    02:00 +24°C° 0 mm 0 mps 752 mmHg 88%
    03:00 +23°C° 0 mm 0 mps 752 mmHg 89%
    04:00 +23°C° 0 mm 0 mps 752 mmHg 89%
    05:00 +23°C° 0 mm 0 mps 752 mmHg 89%
    06:00 +25°C° 0 mm 1 mps 752 mmHg 88%
    07:00 +25°C° 0 mm 1 mps 753 mmHg 88%
    08:00 +27°C° 0 mm 1 mps 753 mmHg 79%
    09:00 +30°C° 0 mm 1 mps 753 mmHg 71%
    10:00 +32°C° 0 mm 2 mps 754 mmHg 62%
    11:00 +33°C° 0 mm 1 mps 753 mmHg 56%
    12:00 +35°C° 0 mm 1 mps 752 mmHg 51%
    13:00 +36°C° 0 mm 1 mps 751 mmHg 45%
    14:00 +36°C° 0 mm 1 mps 751 mmHg 45%
    15:00 +36°C° 0 mm 1 mps 750 mmHg 46%
    16:00 +35°C° 0 mm 1 mps 750 mmHg 46%
    17:00 +31°C° 0 mm 0 mps 750 mmHg 52%
    18:00 +29°C° 0 mm 0 mps 751 mmHg 59%
    19:00 +27°C° 0 mm 0 mps 751 mmHg 65%
    20:00 +26°C° 0.2 mm 0 mps 752 mmHg 71%
    21:00 +25°C° 0.2 mm 0 mps 752 mmHg 78%
    22:00 +26°C° 0.2 mm 1 mps 753 mmHg 84%
    23:00 +24°C° 0.1 mm 0 mps 753 mmHg 87%

    22 July, Monday

    Time Temperature Precipitation Wind Pressure Humidity
    00:00 +24°C° 0.1 mm 0 mps 753 mmHg 90%
    01:00 +23°C° 0.1 mm 0 mps 752 mmHg 93%
    02:00 +23°C° 0 mm 0 mps 752 mmHg 93%
    03:00 +23°C° 0 mm 0 mps 752 mmHg 94%
    04:00 +23°C° 0 mm 0 mps 752 mmHg 95%
    05:00 +23°C° 0 mm 0 mps 752 mmHg 94%
    06:00 +23°C° 0 mm 0 mps 752 mmHg 94%
    07:00 +23°C° 0 mm 0 mps 753 mmHg 93%
    08:00 +27°C° 0 mm 1 mps 753 mmHg 84%
    09:00 +29°C° 0 mm 1 mps 753 mmHg 74%
    10:00 +32°C° 0 mm 1 mps 753 mmHg 64%
    11:00 +33°C° 0 mm 1 mps 753 mmHg 60%
    12:00 +34°C° 0 mm 1 mps 752 mmHg 55%
    13:00 +35°C° 0 mm 1 mps 751 mmHg 51%
    14:00 +35°C° 0 mm 1 mps 751 mmHg 49%
    15:00 +35°C° 0 mm 1 mps 750 mmHg 48%
    16:00 +35°C° 0 mm 1 mps 750 mmHg 46%
    17:00 +33°C° 0 mm 1 mps 750 mmHg 57%
    18:00 +31°C° 0 mm 1 mps 750 mmHg 67%
    19:00 +28°C° 0 mm 1 mps 751 mmHg 78%
    20:00 +28°C° 0 mm 1 mps 752 mmHg 80%
    21:00 +28°C° 0 mm 1 mps 752 mmHg 81%
    22:00 +27°C° 0 mm 2 mps 753 mmHg 83%
    23:00 +27°C° 0 mm 2 mps 753 mmHg 83%
    Show more